Home   Weather   Wardha   Past weeks

Flag for India Past Weather in Wardha, Maharashtra, India — Yesterday and Last 2 Weeks

Now
86 °F

Scattered clouds.


Feels Like: 97 °F
Forecast: 75 / 87 °F
Wind: 6 mph from Northeast

Location: Nagpur Sonegaon

Current Time: Sep 29, 2016 at 12:22:05 PM

Latest Report: Sep 29, 2016 at 12:00 PM


Visibility: 3 mi

Pressure: 29.71 "Hg

Humidity: 75%

Dew Point: 77 °F

Location of WardhaLocation

Past Weather in Wardha — Graph

°F

Wardha Temperature Yesterday

Maximum temperature yesterday: 102 °F (at 5:30 PM)
Minimum temperature yesterday: 77 °F (at 1:30 AM)
Average temperature yesterday: 84 °F

High & Low Weather Summary for the Past Weeks

 TemperatureHumidityPressure
High102 °F (Sep 28, 5:30 PM)100% (Sep 25, 9:00 AM)29.83 "Hg (Sep 25, 9:00 AM)
Low75 °F (Sep 29, 5:30 AM)40% (Sep 28, 6:00 PM)29.53 "Hg (Sep 24, 3:00 PM)
Average83 °F80%29.70 "Hg
* Reported Sep 14 10:30 AM — Sep 29 10:30 AM, Wardha, Weather by CustomWeather, © 2016

Note: Actual official high and low records may vary slightly from our data, if they occured in-between our weather recording intervals... More about our weather records

Advertising

Wardha Weather History for the Previous 24 Hours

Scroll right to see more
 ConditionsComfort  
Time TempWeatherWind HumidityBarometerVisibility
10:30 AM
Thu, Sep 29
86 °FScattered clouds.8 mph75%29.74 "Hg3 mi
10:00 AM86 °FScattered clouds.8 mph75%29.74 "Hg3 mi
9:30 AM84 °FScattered clouds.7 mph79%29.74 "Hg2 mi
9:00 AM82 °FScattered clouds.8 mph79%29.74 "Hg2 mi
8:30 AM81 °FScattered clouds.9 mph84%29.74 "Hg2 mi
8:00 AM77 °FScattered clouds.9 mph89%29.74 "Hg1 mi
7:30 AM77 °FScattered clouds.8 mph89%29.71 "Hg1 mi
6:30 AM75 °FPassing clouds.7 mph94%29.71 "Hg1 mi
6:00 AM75 °FPassing clouds.5 mph94%29.71 "Hg1 mi
5:30 AM75 °FPassing clouds.5 mph94%29.68 "Hg1 mi
5:00 AM79 °FPartly cloudy.5 mph94%29.68 "Hg2 mi
4:30 AM79 °FPartly cloudy.No wind94%29.68 "Hg2 mi
4:00 AM79 °FPartly cloudy.5 mph94%29.68 "Hg2 mi
3:30 AM79 °FPassing clouds.No wind94%29.71 "Hg2 mi
2:30 AM79 °FPartly cloudy.No wind94%29.68 "Hg2 mi
2:00 AM79 °FPartly cloudy.No wind94%29.68 "Hg2 mi
1:00 AM79 °FPartly cloudy.No wind94%29.71 "Hg2 mi
12:30 AM79 °FPassing clouds.No wind94%29.71 "Hg2 mi
12:00 AM79 °FPassing clouds.No wind94%29.71 "Hg2 mi
11:30 PM
Wed, Sep 28
79 °FPassing clouds.No wind89%29.74 "Hg2 mi
11:00 PM79 °FPassing clouds.No wind89%29.74 "Hg2 mi
10:00 PM79 °FPassing clouds.No wind89%29.74 "Hg2 mi
9:30 PM79 °FPassing clouds.2 mph89%29.74 "Hg2 mi
9:00 PM79 °FPassing clouds.No wind79%29.71 "Hg2 mi
8:30 PM79 °FPassing clouds.No wind79%29.71 "Hg2 mi
7:30 PM79 °FPassing clouds.3 mph79%29.68 "Hg2 mi
7:00 PM79 °FPassing clouds.2 mph79%29.68 "Hg2 mi
6:30 PM81 °FPartly sunny.3 mph74%29.65 "Hg3 mi
6:00 PM102 °FBroken clouds.5 mph40%29.65 "Hg3 mi
5:30 PM102 °FScattered clouds.7 mph60%29.62 "Hg3 mi
4:30 PM97 °FScattered clouds.9 mph56%29.62 "Hg3 mi
3:00 PM93 °FScattered clouds.7 mph56%29.65 "Hg3 mi
2:30 PM93 °FScattered clouds.3 mph56%29.65 "Hg3 mi
1:30 PM91 °FScattered clouds.3 mph59%29.71 "Hg3 mi
1:00 PM90 °FScattered clouds.7 mph63%29.71 "Hg3 mi
12:30 PM90 °FScattered clouds.6 mph63%29.71 "Hg3 mi
12:00 PM88 °FScattered clouds.5 mph66%29.74 "Hg3 mi
Weather by CustomWeather, © 2016

See weather overviewHow to use our weather pages